Weather History for PAJN - August, 2013

Change the Weather History Date:

Monday, August 19, 2013

  Actual Average Record
Temperature  
Mean Temperature 55 °F 56 °F  
Max Temperature 60 °F 63 °F 80 °F (1977)
Min Temperature 49 °F 49 °F 34 °F (1947)
Degree Days  
Heating Degree Days 10 9  
Month to date heating degree days 98 156  
Since 1 June heating degree days 534 722  
Since 1 July heating degree days 320 407  
Cooling Degree Days 0 0  
Month to date cooling degree days 0 0  
Year to date cooling degree days 9 2  
Since 1 June cooling degree days 9 2  
Growing Degree Days 4 (Base 50)    
Moisture  
Dew Point 50 °F    
Average Humidity 83    
Maximum Humidity 93    
Minimum Humidity 72    
Precipitation  
Precipitation 0.11 in 0.18 in 1.50 in (1991)
Month to date precipitation 3.06 3.18  
Year to date precipitation 39.07 30.62  
Sea Level Pressure  
Sea Level Pressure 29.84 in    
Wind  
Wind Speed 5 mph (East)    
Max Wind Speed 13 mph    
Max Gust Speed 16 mph    
Visibility 10 miles    
Events Fog , Rain    
T = Trace of Precipitation, MM = Missing Value Source: NWS Daily Summary

Daily Weather History Graph

Daily Weather History Graph

Search for Another Location

Airport or City:

Trip Planner

Search our weather history database for the weather conditions in past years. The results will help you decide how hot, cold, wet, or windy it might be!

Date:

Astronomy

Aug. 19, 2013 Rise Set
Actual Time 5:29 AM AKDT 8:32 PM AKDT
Civil Twilight 4:43 AM AKDT 9:18 PM AKDT
Nautical Twilight 3:40 AM AKDT 10:20 PM AKDT
Astronomical Twilight 2:00 AM AKDT 11:55 PM AKDT
Moon 7:25 PM AKDT (8/19) 3:51 AM AKDT (8/19)
Length of Visible Light 16h 34m
Length of Day
15h 02m
Waxing Gibbous, 98% of the Moon is Illuminated
Aug 19
Waxing Gibbous
Aug 20
Full
Aug 28
Last Quarter
Sep 5
New
Sep 12
First Quarter

Hourly Weather History & Observations

Time (AKDT) Temp. Dew Point Humidity Pressure Visibility Wind Dir Wind Speed Gust Speed Precip Events Conditions
12:53 AM 50.0 °F 48.0 °F 93% 29.76 in 6.0 mi ESE 10.4 mph - 0.00 in Rain Light Rain
1:40 AM 50.0 °F 48.0 °F 93% 29.76 in 10.0 mi East 10.4 mph - 0.01 in   Overcast
1:53 AM 50.0 °F 48.9 °F 96% 29.76 in 10.0 mi East 8.1 mph - 0.01 in Fog Patches of Fog
2:53 AM 51.1 °F 48.9 °F 92% 29.76 in 10.0 mi ENE 5.8 mph - N/A Fog Patches of Fog
3:53 AM 50.0 °F 48.9 °F 96% 29.76 in 10.0 mi East 5.8 mph - 0.00 in Rain Light Rain
4:53 AM 50.0 °F 48.9 °F 96% 29.75 in 10.0 mi ENE 5.8 mph - 0.00 in   Overcast
5:53 AM 50.0 °F 48.9 °F 96% 29.76 in 10.0 mi Calm Calm - N/A   Overcast
6:53 AM 50.0 °F 48.9 °F 96% 29.76 in 10.0 mi Calm Calm - N/A   Overcast
7:53 AM 51.1 °F 48.9 °F 92% 29.77 in 10.0 mi Calm Calm - N/A   Overcast
8:53 AM 52.0 °F 48.9 °F 89% 29.78 in 10.0 mi Calm Calm - N/A   Overcast
9:53 AM 54.0 °F 48.9 °F 83% 29.79 in 10.0 mi Calm Calm - N/A   Overcast
10:53 AM 55.0 °F 48.9 °F 80% 29.81 in 10.0 mi ESE 5.8 mph - N/A   Overcast
11:53 AM 55.9 °F 48.0 °F 75% 29.82 in 10.0 mi East 3.5 mph - N/A   Overcast
12:53 PM 57.0 °F 48.9 °F 74% 29.84 in 10.0 mi East 5.8 mph - N/A   Overcast
1:53 PM 57.9 °F 50.0 °F 75% 29.85 in 10.0 mi East 4.6 mph - N/A   Overcast
2:53 PM 59.0 °F 50.0 °F 72% 29.86 in 10.0 mi ESE 6.9 mph - N/A   Overcast
3:53 PM 60.1 °F 51.1 °F 72% 29.86 in 10.0 mi ESE 8.1 mph - N/A   Overcast
4:53 PM 57.9 °F 51.1 °F 78% 29.87 in 10.0 mi East 8.1 mph - N/A   Overcast
5:53 PM 57.9 °F 51.1 °F 78% 29.88 in 10.0 mi ESE 8.1 mph - 0.00 in   Overcast
6:53 PM 55.9 °F 51.1 °F 84% 29.90 in 10.0 mi NNE 8.1 mph - 0.00 in Rain Light Rain
7:53 PM 54.0 °F 51.1 °F 90% 29.92 in 4.0 mi ENE 8.1 mph - 0.01 in Rain Light Rain
8:53 PM 53.1 °F 51.1 °F 93% 29.93 in 5.0 mi East 8.1 mph - 0.03 in Rain Light Rain
9:53 PM 53.1 °F 51.1 °F 93% 29.94 in 10.0 mi ENE 8.1 mph - 0.03 in Rain Light Rain
10:37 PM 53.1 °F 51.1 °F 93% 29.94 in 10.0 mi ENE 9.2 mph - 0.01 in Rain Light Rain
10:53 PM 53.1 °F 51.1 °F 93% 29.95 in 10.0 mi NE 6.9 mph - 0.01 in   Overcast
11:10 PM 53.1 °F 51.1 °F 93% 29.95 in 9.0 mi ENE 5.8 mph - 0.00 in Rain Light Rain
11:53 PM 53.1 °F 51.1 °F 93% 29.96 in 10.0 mi ENE 9.2 mph - 0.02 in Rain Light Rain